Reflectivity
-20 10 -20 -20 -16 -17 26 34 34 25 8 32 38 39 38 23 10 14 30 10 -19 -10 -16 -20 -20 -20 -20 -20 -20 -20 -20 -20 -20 -20 -20 -20 -20 -20 -20 -20 -20 -20 -20 -20
-20 14 -20 -11 -3 3 27 34 31 24 4 29 30 35 32 1 -2 -10 14 -20 -6 10 -20 -20 -20 -20 -20 -20 -20 -20 -20 -20 -20 -20 -20 -20 -20 -20 -20 -20 -20 -20 -20 -20
-20 -2 -20 -20 18 8 33 25 21 29 37 6 30 5 20 11 1 -18 -14 -7 -20 -11 -20 -20 -20 -20 -20 -20 -20 -20 -18 -20 -20 -20 -20 -20 -20 -20 -20 -5 8 -20 -18 -20
-20 -1 -20 25 -17 19 28 42 33 23 29 19 26 37 14 19 10 -13 8 -20 -20 -20 -20 -20 -20 -20 -20 -20 -20 -9 13 -20 -20 -20 -20 -20 -20 -20 -20 -1 -12 -20 -20 -20
-20 20 -20 22 20 24 29 36 35 38 22 16 -12 -16 30 21 -4 1 11 -9 -20 -20 -20 -20 -20 -20 -20 -20 -16 1 20 -18 -20 -20 -20 -20 -20 -20 -20 -20 -20 -20 -20 -20
-20 -5 22 23 16 25 34 40 35 14 11 32 8 8 12 33 14 -7 -8 -6 -5 -3 -20 -20 -20 -20 -20 4 28 -3 -5 13 25 12 1 -20 -14 -20 -20 -20 -20 -20 -20 -20
-20 -20 -0 23 20 29 33 28 26 40 22 -0 7 4 17 10 -20 -20 -7 3 -0 -11 -20 -20 -13 -3 10 4 4 -17 19 -10 -7 14 4 -8 -20 -20 -20 -20 -20 -20 -20 -20
-8 -12 -20 -12 25 25 5 21 6 25 36 20 -20 -20 -20 -16 7 24 5 -14 -20 -19 -15 16 19 24 3 16 12 -1 -4 3 8 11 11 -20 -20 -20 -20 -20 -20 -20 -20 -20
-20 -20 14 24 2 15 22 24 35 35 22 -19 -20 -20 -20 19 23 21 26 18 1 -17 -8 20 15 9 17 8 -14 -11 -8 10 9 11 18 11 -20 -20 3 2 -20 -20 -20 -19
9 -20 -16 -2 9 19 23 33 28 36 28 -4 -17 -7 2 -10 27 23 27 16 1 5 -7 11 -4 1 -2 -20 -20 -20 -14 -16 -8 5 14 1 -18 -12 -19 -20 -20 -18 -16 -0
31 19 10 6 -6 15 34 35 24 35 -6 -11 -14 -9 -20 16 12 9 30 12 9 -0 -1 6 11 10 -20 -20 -20 -20 -20 -20 4 17 20 25 3 -11 -3 -16 -20 -20 -20 -18
32 34 36 32 22 9 1 25 16 -1 20 24 -9 -18 -1 -17 -2 22 22 15 -4 19 8 15 -5 -9 -20 -20 -20 -20 -20 -20 4 -14 -19 -20 -20 -20 -10 -20 -20 -20 -20 -15
22 29 31 29 29 11 6 12 27 27 32 23 21 27 16 -19 -20 -15 -1 20 12 18 2 7 -15 -2 -12 -20 -10 -13 -18 -20 -20 -11 2 -20 -20 -20 -20 -20 -20 -20 -20 -20
-3 4 23 29 26 28 10 -1 11 -5 13 23 27 33 30 28 24 13 20 11 17 25 19 16 18 14 9 11 7 -6 -20 -20 -20 -20 -20 -20 -20 -20 -20 -20 -20 -20 -20 -20
-20 -10 -2 7 8 13 19 18 28 23 18 20 20 19 10 10 10 9 9 31 31 22 20 14 -3 -7 -14 -20 -20 -20 -20 -20 -20 -20 -20 -20 -20 -20 -20 -20 -20 -20 -20 -20
-20 -20 -4 0 -0 5 8 5 14 30 24 10 11 11 14 7 8 2 -1 11 11 -14 -12 -8 -20 -20 -20 -20 -20 -20 -20 -20 -20 -20 -20 -20 -20 -20 -20 -20 -20 -20 -20 -20
-20 -20 -20 -8 -18 -12 -0 1 -5 2 6 12 9 12 12 11 3 -16 -12 -12 -16 -20 -20 -20 -20 -20 -20 -20 -20 -20 -20 -20 -20 -20 -20 -20 -20 -20 -20 -20 -20 -20 -20 -20
-20 -20 -20 -20 -20 -20 -13 -4 -20 -19 -15 -10 -1 6 7 1 -9 -20 -20 -20 -20 -20 -20 -20 -20 -20 -20 -20 -20 -20 -20 -20 -20 -20 -20 -20 -20 -20 -20 -20 -20 -20 -20 -20
-20 -20 -20 -20 -20 -20 -20 -20 -20 -19 -20 -20 -20 -20 -20 -20 -20 -20 -20 -20 -20 -19 -20 -20 -20 -20 -20 -20 -20 -20 -20 -20 -20 -20 -20 -20 -20 -20 -20 -20 -20 -20 -20 -20
-20 -20 -20 -20 -20 -20 -20 -20 -20 -20 -20 -20 -20 -20 -19 -20 -20 -20 -20 -20 -20 -20 -20 -20 -20 -20 -20 -20 -20 -20 -20 -18 -11 -20 -20 -20 -20 -20 -20 -20 -20 -20 -20 -20
-20 -20 -20 -20 -20 -20 -20 -20 -20 -20 -20 -20 -20 -20 -20 -20 -20 -20 -20 -20 -20 -20 -20 -20 -20 -20 -20 -20 -20 -20 -20 -20 -7 -20 -20 -20 -20 -20 -20 -20 -20 -20 -20 -20
-20 -20 -20 -20 -20 -20 -20 -20 -20 -20 -20 -20 -20 -20 -20 -20 -20 -20 -20 -20 -20 -20 -20 -20 -20 -20 -20 -20 -20 -20 -20 -20 -20 -7 -3 -19 -20 -20 -20 -20 -20 -20 -20 -20
-20 -20 -20 -20 -20 -20 -20 -20 -20 -20 -20 -20 -20 -20 -20 -20 -20 -20 -20 -20 -20 -20 -20 -20 -20 -20 -20 -20 -20 -18 -19 -20 2 -12 2 -12 -20 -20 -20 -20 -20 -20 -20 -20
-20 -20 -20 -20 -20 -20 -20 -20 -20 -20 -20 -20 -20 -20 -20 -20 -20 -20 -20 -20 -20 -20 -20 -20 -20 -19 -20 -20 -20 -20 -20 -20 -20 -20 -20 -18 -17 -20 -20 -20 4 -19 -20 -20
-20 -20 -20 -20 -20 -19 -5 1 -14 -20 -20 -20 -20 -20 -20 -20 -20 -20 -20 -20 -20 -20 -20 -20 -20 -20 -20 -20 -20 -20 -20 -20 -20 -20 -20 -20 1 -20 -2 -8 3 -6 -20 -20
-20 -20 -20 -20 -20 -20 -20 -20 -20 -20 -20 -20 -20 -20 -20 -20 -20 -20 -20 -20 -20 -20 -19 -15 -20 -20 -20 -20 -20 -20 -20 -14 -14 -20 -20 -14 -9 -8 -20 -19 -12 -20 -20 -20
-20 -20 -20 -20 -20 -20 -20 -20 -20 -20 -20 -20 -20 -20 -20 -20 -20 -20 -20 -20 -4 14 11 -20 -20 -20 -20 -20 -20 -20 -20 -20 -19 -20 -20 -20 -19 -2 -19 -20 -18 -15 -19 -14
Wind_Speed
28 27 26 26 25 28 19 9 11 12 19 17 7 14 11 11 13 9 4 4 5 10 13 12 12 15 7 11 17 20 8 4 5 6 4 4 17 15 14 8 6 4 2 7
28 28 27 26 27 27 10 8 6 5 20 16 7 7 11 16 17 19 9 8 5 4 9 6 8 10 3 9 16 19 12 5 4 3 3 3 9 11 15 9 3 11 7 8
28 28 27 28 27 28 12 5 4 3 8 18 15 9 20 16 17 21 10 7 6 6 6 1 12 7 2 1 9 10 16 5 8 12 3 6 9 11 13 16 9 14 16 15
28 27 28 28 29 29 14 5 6 5 10 21 18 17 12 26 11 7 20 10 14 13 6 7 5 5 4 3 4 5 9 8 6 2 1 2 4 14 15 18 24 18 22 18
27 27 28 27 28 30 10 5 3 1 7 23 23 17 7 22 13 15 20 14 20 14 13 16 8 8 5 7 3 5 3 2 3 5 4 5 6 7 15 21 18 16 12 15
26 27 27 27 28 25 6 2 1 3 6 17 20 11 11 20 16 3 14 17 12 16 18 5 5 3 4 8 9 6 8 6 3 8 5 4 8 23 18 13 13 19 17 17
27 26 25 27 26 26 1 1 3 2 4 15 20 23 19 15 21 9 6 13 10 4 16 10 9 9 9 5 4 5 7 16 7 4 8 11 11 1 18 22 16 16 8 11
25 27 27 24 25 25 8 3 3 2 4 11 13 19 14 13 14 6 8 3 7 13 8 5 4 1 3 4 1 2 4 12 5 5 9 9 6 5 8 13 17 15 12 10
23 24 22 24 27 24 11 4 1 3 5 6 6 17 18 7 7 4 4 5 4 7 5 4 7 7 5 7 5 0 3 3 11 5 7 12 4 6 10 7 15 10 14 12
19 20 23 25 26 28 16 2 2 1 5 2 4 6 11 6 6 5 5 6 2 4 5 4 5 5 2 10 11 8 6 4 16 9 6 6 6 4 8 11 5 4 12 11
22 22 22 24 25 22 9 4 2 3 4 3 5 2 7 6 5 7 6 5 1 3 5 6 6 4 7 4 6 9 11 10 5 4 4 10 9 8 10 5 2 5 7 11
12 13 12 17 21 19 10 5 1 6 6 4 4 7 6 4 5 9 8 2 7 5 5 3 5 4 4 6 6 3 5 5 8 9 5 2 9 3 2 1 3 2 4 4
23 17 11 10 13 17 12 6 2 7 3 5 6 6 9 7 5 4 8 1 4 3 1 5 3 4 3 5 3 4 2 2 3 4 2 1 5 1 3 2 1 0 2 4
22 23 23 22 21 22 14 5 2 3 7 5 6 2 2 7 2 5 5 11 5 5 1 3 4 4 4 3 3 2 1 6 6 2 2 2 2 2 3 3 2 2 2 3
22 19 16 16 21 23 16 8 6 4 4 5 6 3 11 10 10 14 12 14 8 3 2 3 3 3 4 2 2 2 2 5 4 3 3 4 3 2 3 4 4 5 5 4
23 24 21 12 7 4 4 6 5 10 4 6 5 2 7 9 12 15 13 6 5 3 4 3 2 2 2 3 2 3 6 3 2 3 3 2 1 2 2 4 4 6 5 5
19 19 23 26 24 12 8 4 5 12 1 6 4 3 6 6 5 5 5 6 5 4 3 3 2 2 3 2 3 5 3 3 0 1 3 2 6 5 8 8 8 8 5 5
15 14 17 16 15 12 6 4 12 5 6 5 5 3 3 8 4 4 5 4 4 7 3 1 2 2 1 2 3 1 1 3 4 4 4 6 3 3 7 7 6 9 9 8
13 8 7 6 9 6 3 19 7 4 5 5 3 4 3 3 3 3 3 3 5 2 2 2 0 1 3 2 2 1 0 2 5 7 6 6 6 8 7 7 8 8 9 8
9 7 6 5 3 11 9 7 7 8 6 5 4 1 4 2 2 3 2 3 2 2 2 1 2 2 4 4 4 4 2 2 2 5 7 4 5 7 8 8 7 8 9 8
5 4 2 3 7 3 4 4 5 3 4 4 2 2 4 0 3 3 1 3 1 2 2 2 2 3 2 5 5 4 3 3 3 4 7 9 12 10 6 5 9 9 7 7
2 3 1 2 5 4 7 3 0 4 3 2 3 2 2 2 2 4 2 3 2 3 5 2 2 2 5 4 5 5 5 5 5 4 5 7 4 5 6 6 3 2 4 2
3 4 5 4 4 9 5 3 2 2 2 3 3 3 2 3 3 4 2 3 2 5 1 2 3 5 4 5 3 3 4 5 4 5 5 4 3 5 5 4 2 0 1 2
4 4 7 5 4 3 2 2 1 1 1 4 4 3 3 1 3 2 4 2 2 1 2 4 3 6 6 5 3 2 3 3 5 5 5 5 5 4 4 4 2 3 5 5
4 4 3 3 1 1 3 2 1 2 2 2 3 3 2 3 4 2 4 3 2 4 4 1 3 8 8 7 6 4 2 3 3 4 5 5 4 3 5 4 4 4 6 7
4 4 3 1 2 2 3 3 2 2 1 1 3 3 3 2 3 3 4 4 5 3 1 2 5 7 7 7 6 5 3 2 3 2 2 2 3 4 4 4 5 5 6 7
2 2 1 1 1 2 0 1 1 1 2 1 2 3 2 3 2 4 4 4 1 3 2 2 3 6 7 7 6 4 3 2 1 1 2 2 2 3 3 7 5 5 5 6
Wind_Direction
202 206 207 208 200 197 185 204 218 165 160 197 185 196 160 154 194 177 185 161 120 168 168 174 190 196 213 172 161 193 178 159 184 193 156 199 215 214 199 197 182 244 267 256
201 205 207 203 198 185 171 209 203 212 171 203 183 159 198 171 173 194 173 180 166 157 167 174 184 191 180 152 166 169 171 191 151 209 215 173 213 202 210 215 113 204 192 247
202 204 206 202 198 186 214 192 194 187 222 200 198 167 195 178 176 186 171 157 122 131 177 292 180 179 88 171 182 163 165 159 211 212 171 148 201 198 199 200 219 231 234 234
200 202 205 200 198 186 183 173 192 232 186 192 177 191 182 184 184 197 183 184 190 170 156 167 180 144 129 63 143 155 175 203 186 213 157 197 237 214 192 198 216 207 236 221
200 200 205 206 198 189 193 150 182 153 152 195 187 180 206 177 164 162 188 201 203 197 205 197 163 135 175 168 163 155 17 184 112 232 201 200 241 238 205 214 221 239 249 232
197 202 203 200 203 193 180 88 256 279 180 177 192 170 169 202 176 231 182 194 163 192 212 137 97 71 130 131 153 159 139 127 140 246 134 133 263 227 212 208 211 215 217 228
197 201 202 202 200 190 92 248 143 199 145 177 193 189 200 182 187 133 177 171 161 189 111 97 59 54 53 135 121 142 160 201 194 192 143 220 244 253 216 220 219 209 220 178
192 196 200 195 200 188 178 194 227 117 139 180 176 185 186 181 205 169 148 129 136 150 96 89 113 54 74 209 133 238 272 178 177 189 203 291 278 210 186 181 238 209 206 173
190 200 200 192 202 184 177 229 23 227 125 186 116 181 186 164 138 103 83 47 107 85 89 128 174 188 167 180 181 9 127 300 215 147 220 226 244 186 154 134 259 194 207 177
191 191 193 191 191 188 179 168 174 252 111 335 108 156 174 117 135 106 123 141 115 20 133 156 176 190 200 177 182 160 161 173 210 199 227 254 234 152 145 162 227 233 194 174
55 82 116 132 138 146 150 104 18 116 80 31 9 117 147 114 172 151 148 115 43 120 154 169 171 171 191 178 160 173 173 159 173 160 195 247 155 145 190 182 190 183 159 167
99 79 82 102 116 117 118 104 182 83 84 90 29 46 26 336 137 125 173 66 138 163 126 147 127 152 181 171 189 182 183 187 172 189 208 78 181 14 100 129 117 199 161 167
71 98 115 116 111 92 93 98 72 75 106 62 40 1 340 12 49 91 118 131 126 171 34 131 126 147 202 174 197 116 155 143 112 158 226 307 186 65 84 110 91 264 232 187
55 70 87 96 105 99 90 78 3 83 100 90 47 44 339 320 295 52 72 111 103 115 80 105 137 139 225 177 107 121 141 146 141 112 256 348 340 83 111 88 123 152 143 187
46 46 59 79 90 99 95 87 53 35 117 119 118 63 27 38 103 91 127 132 134 134 103 74 86 113 141 68 97 136 195 156 180 186 149 87 107 165 179 182 182 169 146 134
48 51 51 63 93 121 67 56 32 19 359 88 77 264 2 13 49 64 63 68 71 82 92 79 84 56 92 102 126 242 223 169 68 119 129 100 116 232 196 167 185 212 229 226
45 53 55 55 67 65 60 88 294 324 313 90 84 46 357 353 26 41 29 37 56 60 88 57 74 56 35 90 160 232 214 233 195 131 138 199 194 217 225 248 269 273 267 260
31 48 60 62 72 85 38 6 2 348 85 71 95 78 30 8 23 49 5 43 28 26 85 101 76 92 44 187 222 229 320 293 277 273 215 259 286 256 250 252 250 248 255 263
11 46 51 39 35 34 312 319 357 19 79 96 79 117 141 6 55 40 41 34 63 330 71 61 17 68 220 207 197 200 350 272 304 312 286 264 234 250 252 240 240 237 244 248
16 38 37 36 323 306 334 8 23 19 357 35 79 57 100 90 66 66 61 16 88 63 40 69 47 276 275 271 288 305 10 57 350 314 313 343 276 248 250 239 241 233 246 242
35 39 57 237 312 37 37 48 49 342 52 25 57 65 119 16 106 113 27 113 97 123 155 157 188 248 199 153 114 82 37 10 322 291 288 287 268 263 266 248 235 227 227 244
114 128 130 4 26 33 71 35 42 49 99 126 125 128 105 100 116 104 154 97 163 121 154 194 232 228 136 94 57 44 28 6 355 351 331 327 333 251 270 275 276 217 274 334
14 41 44 27 335 43 59 18 11 47 135 152 157 92 102 139 84 92 111 95 103 135 81 243 232 152 125 99 100 93 44 22 14 9 8 0 21 32 25 5 32 340 69 106
57 43 31 60 358 35 23 7 78 20 128 126 106 84 79 98 72 111 91 66 137 166 203 235 166 161 128 121 120 121 52 36 20 14 11 23 35 41 39 39 45 114 104 100
58 54 57 52 9 68 16 356 47 48 146 122 85 75 81 48 90 54 94 120 239 222 232 213 168 149 154 155 146 133 99 42 19 348 15 29 49 67 71 60 72 93 106 112
49 52 94 70 67 2 28 6 48 8 51 53 47 84 54 77 105 132 200 175 217 205 181 150 141 152 155 154 145 143 134 107 49 45 36 45 69 79 82 69 73 81 97 102
69 29 112 102 106 169 204 18 16 83 69 112 104 125 172 133 203 203 181 208 209 149 153 125 151 158 148 141 140 153 153 135 87 77 85 99 104 129 112 90 73 75 76 88